Weather History for Gillette, WY

Change the Weather History Date:

Friday, April 12, 2013

  Actual Average Record
Temperature  
Mean Temperature 33 °F 41 °F  
Max Temperature 40 °F 55 °F 80 °F (2003)
Min Temperature 26 °F 28 °F 8 °F (1940)
Degree Days  
Heating Degree Days 32 24  
Month to date heating degree days 341 301  
Since 1 July heating degree days 6428 6648  
Cooling Degree Days 0 0  
Month to date cooling degree days 0 0  
Year to date cooling degree days 0 0  
Moisture  
Dew Point 28 °F    
Average Humidity 77    
Maximum Humidity 100    
Minimum Humidity 54    
Precipitation  
Precipitation T in 0.05 in 1.00 in (1927)
Month to date precipitation 0.75 0.41  
Year to date precipitation 2.16 2.15  
Sea Level Pressure  
Sea Level Pressure 29.94 in    
Wind  
Wind Speed 14 mph (WNW)    
Max Wind Speed 32 mph    
Max Gust Speed 40 mph    
Visibility 9 miles    
Events Snow    
T = Trace of Precipitation, MM = Missing Value Source: NWS Daily Summary

Daily Weather History Graph

Daily Weather History Graph

Search for Another Location

Airport:

Trip Planner

Search our weather history database for the weather conditions in past years. The results will help you decide how hot, cold, wet, or windy it might be!

Date:

Astronomy

Apr. 12, 2013 Rise Set
Actual Time 6:23 AM MDT 7:43 PM MDT
Civil Twilight 5:53 AM MDT 8:13 PM MDT
Nautical Twilight 5:16 AM MDT 8:49 PM MDT
Astronomical Twilight 4:38 AM MDT 9:28 PM MDT
Moon 7:29 AM MDT (4/12) 10:22 PM MDT (4/12)
Length of Visible Light 14h 20m
Length of Day
13h 20m
Waxing Crescent, 5% of the Moon is Illuminated
Apr 12
Waxing Crescent
Apr 18
First Quarter
Apr 25
Full
May 2
Last Quarter
May 9
New

Hourly Weather History & Observations

Time (MDT) Temp. Windchill Dew Point Humidity Pressure Visibility Wind Dir Wind Speed Gust Speed Precip Events Conditions
12:53 AM 27.0 °F 21.6 °F 27.0 °F 100% 29.94 in 10.0 mi WSW 4.6 mph - N/A   Clear
1:53 AM 27.0 °F - 26.1 °F 96% 29.94 in 10.0 mi Calm Calm - N/A   Partly Cloudy
2:53 AM 27.0 °F 20.5 °F 27.0 °F 100% 29.92 in 7.0 mi WSW 5.8 mph - N/A   Partly Cloudy
3:17 AM 26.6 °F 19.1 °F 26.6 °F 100% 29.85 in 3.0 mi SW 6.9 mph - N/A   Mostly Cloudy
3:39 AM 26.6 °F 21.2 °F 26.6 °F 100% 29.86 in 9.0 mi SW 4.6 mph - N/A   Unknown
3:53 AM 28.0 °F 24.2 °F 28.0 °F 100% 29.93 in 10.0 mi Variable 3.5 mph - N/A   Unknown
4:09 AM 28.4 °F - 26.6 °F 93% 29.87 in 10.0 mi Calm Calm - N/A   Overcast
4:53 AM 28.9 °F - 28.9 °F 100% 29.92 in 10.0 mi Calm Calm - N/A   Overcast
5:33 AM 32.0 °F 23.6 °F 30.2 °F 93% 29.87 in 10.0 mi West 10.4 mph - N/A   Overcast
5:37 AM 32.0 °F 23.6 °F 30.2 °F 93% 29.87 in 10.0 mi West 10.4 mph - N/A   Overcast
5:53 AM 32.0 °F 23.0 °F 30.9 °F 96% 29.92 in 8.0 mi West 11.5 mph - N/A   Overcast
6:04 AM 32.0 °F 22.5 °F 30.2 °F 93% 29.87 in 1.8 mi West 12.7 mph - 0.00 in Snow Light Snow
6:18 AM 32.0 °F 23.0 °F 32.0 °F 100% 29.87 in 3.0 mi WNW 11.5 mph - 0.00 in Snow Light Snow
6:27 AM 33.8 °F 23.9 °F 32.0 °F 93% 29.88 in 9.0 mi WNW 15.0 mph - 0.00 in   Overcast
6:43 AM 33.8 °F 22.8 °F 32.0 °F 93% 29.88 in 10.0 mi NW 18.4 mph - 0.00 in   Overcast
6:50 AM 33.8 °F 22.5 °F 32.0 °F 93% 29.88 in 10.0 mi NW 19.6 mph - 0.00 in   Overcast
6:53 AM 33.1 °F 22.2 °F 32.0 °F 96% 29.94 in 10.0 mi NW 17.3 mph - 0.00 in   Overcast
7:53 AM 34.0 °F 24.2 °F 30.9 °F 89% 29.95 in 10.0 mi NW 15.0 mph - 0.00 in   Mostly Cloudy
8:44 AM 35.6 °F 24.8 °F 30.2 °F 81% 29.91 in 10.0 mi NW 19.6 mph 26.5 mph N/A   Scattered Clouds
8:53 AM 35.1 °F 24.1 °F 30.9 °F 85% 29.95 in 10.0 mi NW 19.6 mph 27.6 mph N/A   Partly Cloudy
9:53 AM 36.0 °F 24.4 °F 30.0 °F 79% 29.96 in 10.0 mi NW 23.0 mph 31.1 mph N/A   Mostly Cloudy
10:17 AM 35.6 °F 23.4 °F 28.4 °F 75% 29.92 in 10.0 mi NW 25.3 mph 31.1 mph N/A   Overcast
10:53 AM 37.0 °F 25.6 °F 28.0 °F 70% 29.99 in 10.0 mi NW 24.2 mph 31.1 mph N/A   Overcast
11:42 AM 35.6 °F 24.2 °F 28.4 °F 75% 29.95 in 10.0 mi NW 21.9 mph 32.2 mph N/A   Mostly Cloudy
11:53 AM 37.0 °F 24.9 °F 27.0 °F 67% 30.01 in 10.0 mi NW 27.6 mph 33.4 mph N/A   Overcast
12:53 PM 37.9 °F 27.1 °F 27.0 °F 65% 30.01 in 10.0 mi NNW 23.0 mph 33.4 mph N/A   Mostly Cloudy
1:53 PM 37.0 °F 24.9 °F 26.1 °F 65% 30.02 in 10.0 mi NW 27.6 mph 38.0 mph N/A   Clear
2:53 PM 37.0 °F 24.9 °F 27.0 °F 67% 30.02 in 10.0 mi NNW 27.6 mph 33.4 mph N/A   Clear
3:53 PM 39.9 °F 30.8 °F 27.0 °F 60% 30.01 in 10.0 mi NNW 18.4 mph 24.2 mph N/A   Clear
4:53 PM 39.9 °F 30.8 °F 25.0 °F 55% 30.00 in 10.0 mi NW 18.4 mph 24.2 mph N/A   Clear
5:53 PM 39.0 °F 30.6 °F 24.1 °F 55% 29.97 in 10.0 mi North 15.0 mph - N/A   Clear
6:53 PM 39.0 °F 34.0 °F 24.1 °F 55% 29.96 in 10.0 mi North 6.9 mph - N/A   Clear
7:53 PM 33.1 °F 26.1 °F 27.0 °F 78% 29.98 in 10.0 mi East 8.1 mph - N/A   Clear
8:53 PM 28.9 °F 21.9 °F 26.1 °F 89% 29.99 in 10.0 mi South 6.9 mph - N/A   Clear
9:53 PM 28.9 °F 21.9 °F 26.1 °F 89% 29.97 in 10.0 mi South 6.9 mph - N/A   Clear
10:53 PM 27.0 °F 20.5 °F 25.0 °F 92% 29.94 in 10.0 mi SSE 5.8 mph - N/A   Clear
11:53 PM 28.0 °F 19.3 °F 25.0 °F 88% 29.92 in 10.0 mi South 9.2 mph - N/A   Clear